This is the latest recevied weather packets stored in our database for station/object VE6EN. If no packets are shown the sender has not sent any weather packets the latest 10 day(s).
| Time | Temp. | Humidity | Pressure | Rain* | Wind** | Luminosity | Snow |
|---|---|---|---|---|---|---|---|
| 1788070204 | 11.67° C | 73% | 1007.9 hPa | 0 mm | - | - | - |
| 1788069607 | 11.67° C | 73% | 1007.8 hPa | 0 mm | - | - | - |
| 1788069004 | 11.67° C | 73% | 1007.8 hPa | 0 mm | - | - | - |
| 1788068403 | 12.22° C | 73% | 1007.7 hPa | 0 mm | - | - | - |
| 1788067810 | 12.22° C | 72% | 1007.7 hPa | 0 mm | - | - | - |
| 1788067214 | 12.22° C | 71% | 1007.7 hPa | 0 mm | - | - | - |
| 1788066607 | 12.78° C | 70% | 1007.7 hPa | 0 mm | - | - | - |
| 1788066004 | 12.78° C | 69% | 1007.5 hPa | 0 mm | - | - | - |
| 1788065405 | 13.33° C | 67% | 1007.3 hPa | 0 mm | - | - | - |
| 1788064804 | 13.89° C | 66% | 1007.5 hPa | 0 mm | - | - | - |
| 1788064205 | 13.89° C | 64% | 1007.5 hPa | 0 mm | - | - | - |
| 1788063603 | 14.44° C | 50% | 1007.5 hPa | 0 mm | - | - | - |
| 1788063007 | 14.44° C | 51% | 1007.5 hPa | 0 mm | - | - | - |
| 1788062403 | 15° C | 48% | 1007.2 hPa | 0 mm | - | - | - |
| 1788061803 | 15° C | 47% | 1007 hPa | 0 mm | - | - | - |
| 1788061202 | 15.56° C | 47% | 1006.8 hPa | 0 mm | - | - | - |
| 1788060603 | 15.56° C | 46% | 1006.5 hPa | 0 mm | - | - | - |
| 1788060003 | 16.11° C | 46% | 1006.4 hPa | 0 mm | - | - | - |
| 1788059403 | 16.11° C | 46% | 1006.3 hPa | 0 mm | - | - | - |
| 1788058804 | 16.11° C | 45% | 1006.3 hPa | 0 mm | - | - | - |
| 1788058203 | 16.67° C | 45% | 1006.2 hPa | 0 mm | - | - | - |
| 1788057604 | 16.67° C | 44% | 1006.1 hPa | 0 mm | - | - | - |
| 1788057003 | 16.67° C | 43% | 1006.1 hPa | 0 mm | - | - | - |
| 1788056404 | 17.22° C | 43% | 1006.3 hPa | 0 mm | - | - | - |
| 1788055804 | 17.22° C | 42% | 1006.2 hPa | 0 mm | - | - | - |
* Rain latest hour (hover to see other rain measurements)
** Current wind speed in m/s (hover to see current wind gust speed)